1516554000.04,31277,3.75,71946.5,-14.69,-16.03,-15.89,0,*6B
1516554001.25,31278,3.75,71936.5,-14.69,-16.03,-16.03,0,*65
1516554002.49,31279,3.75,71934.5,-14.71,-16.03,-16.03,0,*6D
1516554003.78,31280,3.75,71946.3,-14.71,-16.13,-16.13,0,*6B
1516554004.99,31281,3.75,71948.5,-14.69,-16.03,-16.03,0,*63
1516554006.23,31282,3.75,71954.0,-14.69,-16.13,-16.03,0,*61
1516554007.51,31283,3.75,71946.5,-14.71,-16.17,-16.13,0,*6C
1516554008.78,31284,3.75,71952.0,-14.71,-16.03,-16.13,0,*6E
1516554010.04,31285,3.75,71942.3,-14.71,-16.13,-16.03,0,*6F
1516554011.28,31286,3.75,71930.3,-14.69,-16.03,-16.13,0,*65
1516554012.54,31287,3.75,71928.3,-14.69,-15.89,-15.89,0,*65
1516554013.77,31288,3.75,71930.0,-14.69,-15.89,-15.99,0,*6B
1516554015.0,31289,3.75,71932.0,-14.71,-15.99,-15.99,0,*62
1516554016.23,31290,3.75,71934.5,-14.71,-15.99,-16.03,0,*6A
1516554017.52,31291,3.75,71934.0,-14.71,-16.13,-16.13,0,*6B
1516554018.81,31292,3.75,71946.8,-14.71,-16.17,-16.17,0,*68
1516554020.08,31293,3.75,71938.8,-14.71,-16.41,-16.31,0,*6E
1516554021.34,31294,3.75,71938.8,-14.71,-16.31,-16.41,0,*69
1516554022.62,31295,3.75,71938.3,-14.71,-16.27,-16.27,0,*6F
1516554023.88,31296,3.75,71938.5,-14.69,-16.31,-16.27,0,*62
1516554025.16,31297,3.75,71934.5,-14.71,-16.31,-16.27,0,*6A
1516554026.45,31298,3.75,71934.5,-14.71,-16.17,-16.17,0,*62
1516554027.74,31299,3.75,71932.5,-14.71,-16.17,-16.17,0,*63
1516554029.03,31300,3.75,71940.0,-14.71,-16.27,-16.17,0,*61
1516554030.32,31301,3.75,71942.0,-14.71,-16.17,-16.27,0,*60
1516554031.61,31302,3.75,71944.3,-14.71,-16.27,-16.27,0,*60
1516554032.87,31303,3.75,71942.8,-14.69,-16.27,-16.17,0,*6B
1516554034.15,31304,3.75,71948.8,-14.71,-16.27,-16.27,0,*66
1516554035.44,31305,3.75,71946.0,-14.71,-16.27,-16.17,0,*64
1516554036.71,31306,3.75,71942.8,-14.73,-16.23,-16.23,0,*66
1516554037.92,31307,3.75,71940.5,-14.73,-16.37,-16.37,0,*67
1516554039.18,31308,3.75,71938.5,-14.69,-16.17,-16.17,0,*63
1516554040.47,31309,3.75,71942.5,-14.71,-16.27,-16.17,0,*68
1516554041.73,31310,3.75,71940.5,-14.73,-16.31,-16.31,0,*61
1516554043.02,31311,3.75,71944.5,-14.71,-16.17,-16.17,0,*62
1516554044.31,31312,3.75,71942.5,-14.71,-16.27,-16.27,0,*61
1516554045.57,31313,3.75,71942.0,-14.73,-16.23,-16.31,0,*61
1516554046.83,31314,3.75,71940.5,-14.73,-16.31,-16.23,0,*66
1516554048.09,31315,3.75,71954.3,-14.73,-16.31,-16.23,0,*67
1516554049.33,31316,3.75,71950.5,-14.73,-16.41,-16.31,0,*60
1516554050.61,31317,3.75,71954.5,-14.71,-16.31,-16.27,0,*63
1516554051.89,31318,3.75,71952.5,-14.71,-16.31,-16.31,0,*6B
1516554053.13,31319,3.75,71948.5,-14.71,-16.41,-16.41,0,*6A
1516554054.34,31320,3.75,71928.0,-14.73,-16.37,-16.37,0,*62
1516554055.61,31321,3.75,71936.3,-14.73,-16.17,-16.09,0,*6C
1516554056.89,31322,3.75,71932.3,-14.73,-16.09,-16.09,0,*60
1516554058.16,31323,3.75,71934.5,-14.73,-16.09,-16.17,0,*6E
1516554059.42,31324,3.75,71944.5,-14.73,-16.23,-16.17,0,*61
1516554060.65,31325,3.75,71944.3,-14.73,-16.31,-16.45,0,*64
1516554061.92,31326,3.75,71954.3,-14.73,-16.17,-16.17,0,*64
1516554063.18,31327,3.75,71950.5,-14.73,-16.31,-16.23,0,*66
1516554064.42,31328,3.75,71950.3,-14.73,-16.09,-16.03,0,*60
1516554065.7,31329,3.75,71950.5,-14.75,-16.31,-16.23,0,*6E
1516554066.98,31330,3.75,71934.5,-14.75,-16.23,-16.31,0,*66
1516554068.23,31331,3.75,71924.5,-14.73,-16.09,-16.03,0,*68
1516554069.5,31332,3.75,71936.5,-14.73,-16.09,-16.17,0,*6E
1516554070.76,31333,3.75,71928.8,-14.75,-16.17,-16.03,0,*63
1516554072.02,31334,3.75,71922.3,-14.75,-16.09,-16.03,0,*6B
1516554073.3,31335,3.75,71926.8,-14.75,-16.31,-16.23,0,*63
1516554074.59,31336,3.75,71926.3,-14.75,-16.23,-16.23,0,*63
1516554075.82,31337,3.75,71924.8,-14.73,-16.17,-16.03,0,*61
1516554077.09,31338,3.75,71938.3,-14.75,-16.09,-16.03,0,*67
1516554078.32,31339,3.75,71958.8,-14.75,-16.03,-15.95,0,*60
1516554079.61,31340,3.75,71952.8,-14.75,-16.17,-16.17,0,*62
1516554080.88,31341,3.75,71952.5,-14.75,-16.03,-16.09,0,*69
1516554082.14,31342,3.75,71950.3,-14.75,-16.09,-15.95,0,*66
1516554083.38,31343,3.75,71936.5,-14.75,-16.03,-16.03,0,*61
1516554084.62,31344,3.75,71950.3,-14.73,-16.17,-16.03,0,*65
1516554085.86,31345,3.75,71948.0,-14.73,-16.09,-16.03,0,*6B
1516554087.15,31346,3.75,71950.5,-14.75,-16.17,-16.09,0,*6B
1516554088.41,31347,3.75,71944.0,-14.73,-16.31,-16.17,0,*67
1516554089.65,31348,3.75,71948.0,-14.75,-16.03,-16.03,0,*6A
1516554090.88,31349,3.75,71950.3,-14.75,-15.95,-16.03,0,*67
1516554092.12,31350,3.75,71948.3,-14.75,-16.03,-15.95,0,*6F
1516554093.38,31351,3.75,71944.3,-14.75,-15.89,-15.95,0,*6F
1516554094.61,31352,3.75,71946.0,-14.75,-16.03,-16.03,0,*61
1516554095.85,31353,3.75,71946.5,-14.73,-16.09,-16.03,0,*6C
1516554097.09,31354,3.75,71948.0,-14.75,-16.03,-16.03,0,*67
1516554098.32,31355,3.75,71942.8,-14.75,-15.95,-15.95,0,*66
1516554099.57,31356,3.75,71944.8,-14.73,-16.17,-15.95,0,*6A
1516554100.86,31357,3.75,71952.8,-14.75,-16.17,-16.17,0,*64
1516554102.12,31358,3.75,71950.0,-14.75,-16.09,-16.03,0,*61
1516554103.41,31359,3.75,71950.0,-14.75,-16.09,-16.09,0,*6A
1516554104.69,31360,3.75,71948.0,-14.73,-16.09,-16.17,0,*69
1516554105.93,31361,3.75,71942.8,-14.73,-16.03,-16.09,0,*6D
1516554107.22,31362,3.75,71942.5,-14.75,-16.09,-16.17,0,*6D
1516554108.51,31363,3.75,71950.5,-14.75,-16.23,-16.17,0,*64
1516554109.77,31364,3.75,71948.5,-14.73,-16.31,-16.17,0,*66
1516554111.06,31365,3.75,71938.0,-14.75,-16.17,-16.17,0,*65
1516554112.35,31366,3.75,71936.5,-14.75,-16.17,-16.17,0,*66
1516554113.65,31367,3.75,71944.5,-14.75,-16.09,-16.09,0,*67
1516554114.91,31368,3.75,71946.0,-14.75,-16.17,-15.95,0,*61
1516554116.14,31369,3.75,71956.5,-14.75,-16.03,-16.03,0,*69
1516554117.44,31370,3.75,71952.3,-14.75,-16.09,-16.09,0,*61
1516554118.73,31371,3.75,71954.8,-14.75,-16.17,-16.09,0,*6F
1516554120.0,31372,3.75,71950.3,-14.73,-16.17,-16.09,0,*6A
1516554121.29,31373,3.75,71952.5,-14.75,-16.09,-16.09,0,*62
1516554122.55,31374,3.75,71950.0,-14.75,-16.17,-16.03,0,*60
1516554123.79,31375,3.75,71952.0,-14.75,-16.03,-16.03,0,*64
1516554125.02,31376,3.75,71950.8,-14.75,-16.03,-16.03,0,*67
1516554126.28,31377,3.75,71946.0,-14.75,-16.09,-16.03,0,*6C
1516554127.51,31378,3.75,71944.3,-14.75,-16.03,-16.03,0,*69
1516554128.73,31379,3.75,71942.5,-14.73,-15.95,-16.03,0,*62
1516554129.96,31380,3.75,71952.8,-14.75,-15.95,-15.95,0,*6E
1516554131.2,31381,3.75,71956.8,-14.75,-15.95,-15.95,0,*6F
1516554132.47,31382,3.75,71954.8,-14.73,-16.09,-16.09,0,*6A
1516554133.74,31383,3.75,71948.0,-14.73,-16.09,-16.23,0,*63
1516554135.01,31384,3.75,71950.8,-14.73,-16.17,-16.09,0,*63
1516554136.28,31385,3.75,71954.8,-14.75,-16.09,-15.95,0,*6D
1516554137.54,31386,3.75,71950.0,-14.73,-16.31,-16.17,0,*6A
1516554138.82,31387,3.75,71952.0,-14.75,-16.23,-16.31,0,*6A
1516554140.04,31388,3.75,71956.0,-14.73,-16.37,-16.37,0,*60
1516554141.27,31389,3.75,71952.5,-14.75,-16.37,-16.37,0,*67
1516554142.48,31390,3.75,71952.3,-14.73,-16.37,-16.37,0,*69
1516554143.73,31391,3.75,71954.3,-14.75,-16.31,-16.37,0,*68
1516554144.99,31392,3.75,71942.3,-14.75,-16.37,-16.31,0,*6B
1516554146.28,31393,3.75,71944.0,-14.75,-16.17,-16.09,0,*63
1516554147.58,31394,3.75,71952.5,-14.75,-16.09,-16.17,0,*64
1516554148.87,31395,3.75,71954.3,-14.75,-16.17,-16.17,0,*6A
1516554150.14,31396,3.75,71946.3,-14.75,-16.31,-16.23,0,*6A
1516554151.41,31397,3.75,71954.5,-14.73,-16.23,-16.09,0,*66
1516554152.68,31398,3.75,71950.8,-14.73,-16.09,-16.17,0,*6E
1516554153.97,31399,3.75,71950.5,-14.75,-16.23,-16.23,0,*66
1516554155.23,31400,3.75,71952.5,-14.75,-16.09,-15.95,0,*67
1516554156.47,31401,3.75,71952.8,-14.75,-16.03,-16.03,0,*60
1516554157.7,31402,3.75,71956.5,-14.75,-15.95,-15.95,0,*63
1516554158.93,31403,3.75,71956.5,-14.75,-15.95,-16.03,0,*6E
1516554160.2,31404,3.75,71954.8,-14.75,-16.09,-16.03,0,*6F
1516554161.44,31405,3.75,71952.0,-14.73,-16.09,-16.03,0,*68
1516554162.7,31406,3.75,71954.8,-14.75,-16.09,-16.03,0,*6D
1516554163.97,31407,3.75,71952.5,-14.73,-16.17,-16.09,0,*6F
1516554165.24,31408,3.75,71958.5,-14.75,-16.09,-16.03,0,*63
1516554166.53,31409,3.75,71952.0,-14.75,-16.09,-16.09,0,*68
1516554167.77,31410,3.75,71948.8,-14.75,-16.03,-15.95,0,*6C
1516554169.03,31411,3.75,71952.0,-14.75,-16.03,-16.09,0,*6B
1516554170.32,31412,3.75,71952.0,-14.75,-16.17,-16.09,0,*6D
1516554171.58,31413,3.75,71958.8,-14.75,-16.03,-16.09,0,*69
1516554172.84,31414,3.75,71960.8,-14.75,-16.17,-16.03,0,*61
1516554174.13,31415,3.75,71966.0,-14.75,-16.17,-16.09,0,*6A
1516554175.41,31416,3.75,71960.3,-14.73,-16.09,-16.09,0,*60
1516554176.62,31417,3.75,71960.0,-14.73,-16.03,-16.03,0,*61
1516554177.91,31418,3.75,71954.5,-14.75,-16.17,-16.09,0,*67
1516554179.2,31419,3.75,71946.8,-14.75,-16.23,-16.17,0,*6E
1516554180.49,31420,3.75,71950.5,-14.75,-16.17,-16.17,0,*63
1516554181.76,31421,3.75,71944.0,-14.73,-16.09,-16.09,0,*64
1516554183.03,31422,3.75,71944.8,-14.75,-16.09,-16.03,0,*6B
1516554184.27,31423,3.75,71950.0,-14.73,-16.09,-16.03,0,*6C
1516554185.5,31424,3.75,71950.8,-14.75,-16.03,-16.03,0,*67
1516554186.78,31425,3.75,71952.3,-14.75,-16.23,-16.23,0,*66
1516554188.06,31426,3.75,71974.5,-14.75,-16.31,-16.31,0,*65
1516554189.29,31427,3.75,71958.8,-14.75,-16.45,-16.45,0,*64
1516554190.52,31428,3.75,71950.8,-14.75,-16.45,-16.45,0,*6B
1516554191.8,31429,3.75,71950.3,-14.75,-16.31,-16.23,0,*69
1516554193.09,31430,3.75,71954.0,-14.75,-16.17,-16.17,0,*62
1516554194.35,31431,3.75,71950.5,-14.75,-16.09,-16.03,0,*69
1516554195.58,31432,3.75,71958.8,-14.75,-16.03,-16.03,0,*60
1516554196.82,31433,3.75,71958.5,-14.75,-15.95,-15.95,0,*61
1516554198.04,31434,3.75,71958.0,-14.73,-15.95,-15.95,0,*60
1516554199.33,31435,3.75,71954.0,-14.75,-16.17,-16.17,0,*67
1516554200.62,31436,3.75,71954.3,-14.75,-16.09,-16.17,0,*6B
1516554201.88,31437,3.75,71962.5,-14.75,-16.03,-16.09,0,*6F
1516554203.16,31438,3.75,71952.0,-14.73,-16.09,-16.09,0,*6C
1516554204.45,31439,3.75,71950.3,-14.75,-16.09,-16.17,0,*64
1516554205.73,31440,3.75,71944.5,-14.75,-16.17,-16.23,0,*62
1516554207.03,31441,3.75,71948.0,-14.75,-16.09,-16.09,0,*64
1516554208.32,31442,3.75,71948.8,-14.75,-16.17,-16.09,0,*68
1516554209.58,31443,3.75,71946.0,-14.75,-16.03,-16.17,0,*63
1516554210.87,31444,3.75,71948.8,-14.75,-16.17,-16.09,0,*6E
1516554212.16,31445,3.75,71948.5,-14.75,-16.17,-16.09,0,*6F
1516554213.46,31446,3.75,71956.8,-14.75,-16.09,-16.09,0,*63
1516554214.74,31447,3.75,71946.5,-14.75,-16.23,-16.17,0,*65
1516554216.0,31448,3.75,71954.8,-14.75,-16.45,-16.31,0,*6E
1516554217.28,31449,3.75,71942.5,-14.75,-16.23,-16.31,0,*6F
1516554218.56,31450,3.75,71940.5,-14.75,-16.23,-16.23,0,*64
1516554219.85,31451,3.75,71938.0,-14.75,-16.17,-16.09,0,*6A
1516554221.12,31452,3.75,71942.8,-14.75,-16.09,-15.95,0,*60
1516554222.35,31453,3.75,71952.3,-14.75,-16.03,-16.03,0,*67
1516554223.64,31454,3.75,71956.3,-14.79,-16.13,-16.13,0,*6C
1516554224.93,31455,3.75,71950.8,-14.75,-16.17,-16.09,0,*6E
1516554226.22,31456,3.75,71952.0,-14.75,-16.17,-16.09,0,*6D
1516554227.49,31457,3.75,71956.0,-14.75,-16.09,-16.03,0,*69
1516554228.75,31458,3.75,71950.0,-14.75,-16.03,-16.17,0,*69
1516554230.04,31459,3.75,71950.3,-14.75,-16.09,-16.23,0,*65
1516554231.33,31460,3.75,71950.3,-14.75,-16.09,-16.09,0,*67
1516554232.62,31461,3.75,71944.0,-14.75,-16.09,-16.17,0,*69
1516554233.91,31462,3.75,71950.8,-14.79,-16.13,-16.23,0,*6A
1516554235.19,31463,3.75,71950.8,-14.75,-16.23,-16.31,0,*67
1516554236.49,31464,3.75,71950.8,-14.75,-16.09,-16.17,0,*6C
1516554237.78,31465,3.75,71948.0,-14.75,-16.17,-16.17,0,*62
1516554239.06,31466,3.75,71942.0,-14.79,-16.23,-16.27,0,*69
1516554240.32,31467,3.75,71944.0,-14.75,-16.03,-16.17,0,*65
1516554241.61,31468,3.75,71946.8,-14.75,-16.17,-16.09,0,*60
1516554242.9,31469,3.75,71940.0,-14.75,-16.23,-16.17,0,*69
1516554244.19,31470,3.75,71944.8,-14.75,-16.17,-16.17,0,*66
1516554245.48,31471,3.75,71948.5,-14.75,-16.17,-16.09,0,*68
1516554246.77,31472,3.75,71942.5,-14.75,-16.17,-16.09,0,*6B
1516554248.06,31473,3.75,71944.5,-14.75,-16.17,-16.09,0,*6A
1516554249.35,31474,3.75,71948.0,-14.75,-16.17,-16.17,0,*62
1516554250.64,31475,3.75,71948.5,-14.75,-16.09,-16.09,0,*63
1516554251.91,31476,3.75,71948.5,-14.75,-16.17,-15.95,0,*69
1516554253.2,31477,3.75,71946.3,-14.75,-16.17,-16.17,0,*61
1516554254.49,31478,3.75,71948.8,-14.75,-16.17,-16.17,0,*6E
1516554255.78,31479,3.75,71944.8,-14.75,-16.17,-16.17,0,*6F
1516554257.06,31480,3.75,71948.8,-14.75,-16.23,-16.17,0,*6E
1516554258.36,31481,3.75,71946.0,-14.75,-16.09,-16.09,0,*68
1516554259.62,31482,3.75,71948.8,-14.75,-16.09,-16.03,0,*61
1516554260.89,31483,3.75,71950.3,-14.75,-16.09,-15.95,0,*6C
1516554262.13,31484,3.75,71954.0,-14.75,-16.03,-15.95,0,*61
1516554263.36,31485,3.75,71952.5,-14.75,-16.03,-15.95,0,*60
1516554264.65,31486,3.75,71958.0,-14.75,-15.89,-15.89,0,*6F
1516554265.91,31487,3.75,71958.5,-14.75,-15.95,-15.89,0,*63
1516554267.19,31488,3.75,71956.5,-14.75,-15.89,-15.89,0,*61
1516554268.45,31489,3.75,71950.5,-14.75,-15.95,-15.89,0,*6D
1516554269.72,31490,3.75,71950.3,-14.75,-15.95,-15.81,0,*6D
1516554270.98,31491,3.75,71954.3,-14.75,-15.95,-15.89,0,*64
1516554272.27,31492,3.75,71952.5,-14.75,-15.89,-15.81,0,*62
1516554273.55,31493,3.75,71950.3,-14.75,-15.81,-15.81,0,*6B
1516554274.79,31494,3.75,71954.0,-14.75,-15.95,-15.95,0,*6C
1516554276.07,31495,3.75,71958.3,-14.75,-15.89,-15.89,0,*6D
1516554277.31,31496,3.75,71962.3,-14.75,-15.95,-15.95,0,*6E
1516554278.58,31497,3.75,71960.3,-14.75,-16.09,-15.95,0,*69
1516554279.81,31498,3.75,71960.0,-14.75,-16.03,-15.95,0,*6C
1516554281.07,31499,3.75,71958.3,-14.75,-15.95,-15.89,0,*6C
1516554282.36,31500,3.75,71958.8,-14.75,-15.81,-15.89,0,*68
1516554283.64,31501,3.75,71958.5,-14.75,-15.89,-15.89,0,*61
1516554284.93,31502,3.75,71960.0,-14.75,-15.89,-15.81,0,*6A
1516554286.19,31503,3.75,71960.3,-14.75,-15.95,-15.89,0,*6E
1516554287.45,31504,3.75,71962.0,-14.75,-15.95,-15.89,0,*69
1516554288.71,31505,3.75,71956.5,-14.75,-15.95,-15.81,0,*60
1516554289.98,31506,3.75,71956.5,-14.75,-15.95,-15.85,0,*67
1516554291.24,31507,3.75,71962.3,-14.75,-15.89,-15.95,0,*6A
1516554292.5,31508,3.75,71968.5,-14.75,-15.89,-15.95,0,*65
1516554293.76,31509,3.75,71964.5,-14.75,-15.95,-15.89,0,*64
1516554295.02,31510,3.75,71950.0,-14.75,-16.03,-15.89,0,*60
1516554296.25,31511,3.75,71956.8,-14.75,-15.95,-16.03,0,*6C
1516554297.52,31512,3.75,71958.5,-14.75,-15.89,-15.95,0,*6E
1516554298.75,31513,3.75,71970.0,-14.75,-15.95,-16.03,0,*6E
1516554299.98,31514,3.75,71964.3,-14.75,-16.03,-16.03,0,*65
1516554301.21,31515,3.75,71962.0,-14.75,-16.03,-16.03,0,*64
1516554302.48,31516,3.75,71964.5,-14.75,-15.95,-16.09,0,*61
1516554303.71,31517,3.75,71958.8,-14.75,-16.03,-16.03,0,*66
1516554304.94,31518,3.75,71960.0,-14.75,-16.03,-16.03,0,*69
1516554306.18,31519,3.75,71964.0,-14.75,-16.03,-16.03,0,*68
1516554307.41,31520,3.75,71956.8,-14.75,-16.03,-16.03,0,*62
1516554308.64,31521,3.75,71960.5,-14.75,-16.03,-16.03,0,*63
1516554309.93,31522,3.75,71960.0,-14.75,-16.09,-16.17,0,*6F
1516554311.22,31523,3.75,71964.3,-14.75,-16.09,-16.23,0,*69
1516554312.51,31524,3.75,71966.3,-14.75,-16.17,-16.17,0,*66
1516554313.81,31525,3.75,71948.3,-14.75,-16.09,-16.17,0,*68
1516554315.1,31526,3.75,71954.0,-14.75,-16.17,-16.09,0,*6B
1516554316.38,31527,3.75,71968.3,-14.75,-16.23,-16.23,0,*65
1516554317.66,31528,3.75,71952.0,-14.75,-16.23,-16.31,0,*69
1516554318.94,31529,3.75,71950.0,-14.79,-16.27,-16.27,0,*67
1516554320.22,31530,3.75,71962.8,-14.75,-16.23,-16.23,0,*63
1516554321.51,31531,3.75,71966.8,-14.75,-16.23,-16.31,0,*61
1516554322.79,31532,3.75,71956.0,-14.75,-16.17,-16.23,0,*66
1516554324.07,31533,3.75,71962.0,-14.75,-16.23,-16.23,0,*60
1516554325.33,31534,3.75,71960.5,-14.79,-16.37,-16.27,0,*6A
1516554326.58,31535,3.75,71964.8,-14.75,-16.31,-16.37,0,*60
1516554327.81,31536,3.75,71962.0,-14.79,-16.37,-16.37,0,*69
1516554329.1,31537,3.75,71962.8,-14.75,-16.23,-16.23,0,*64
1516554330.38,31538,3.75,71960.0,-14.75,-16.23,-16.23,0,*6B
1516554331.64,31539,3.75,71964.0,-14.75,-16.17,-16.03,0,*6F
1516554332.92,31540,3.75,71964.0,-14.75,-16.31,-16.23,0,*67
1516554334.2,31541,3.75,71956.0,-14.75,-16.31,-16.09,0,*6E
1516554335.49,31542,3.75,71958.0,-14.75,-16.17,-16.09,0,*69
1516554336.78,31543,3.75,71966.0,-14.75,-16.23,-16.09,0,*6F
1516554338.07,31544,3.75,71960.3,-14.75,-16.17,-16.17,0,*60
1516554339.36,31545,3.75,71962.0,-14.75,-16.23,-16.17,0,*66
1516554340.65,31546,3.75,71954.0,-14.75,-16.09,-16.09,0,*62
1516554341.92,31547,3.75,71960.0,-14.75,-16.09,-16.03,0,*69
1516554343.18,31548,3.75,71958.0,-14.75,-16.09,-16.03,0,*66
1516554344.47,31549,3.75,71960.0,-14.79,-16.13,-16.13,0,*61
1516554345.73,31550,3.75,71956.5,-14.75,-16.23,-16.03,0,*67
1516554347.01,31551,3.75,71956.0,-14.79,-16.17,-16.23,0,*6F
1516554348.3,31552,3.75,71958.5,-14.75,-16.23,-16.17,0,*60
1516554349.58,31553,3.75,71958.5,-14.79,-16.27,-16.13,0,*6D
1516554350.87,31554,3.75,71960.5,-14.79,-16.27,-16.13,0,*6A
1516554352.16,31555,3.75,71970.8,-14.75,-16.17,-16.17,0,*60
1516554353.44,31556,3.75,71944.5,-14.75,-16.23,-16.17,0,*64
1516554354.73,31557,3.75,71956.3,-14.75,-16.23,-16.09,0,*6A
1516554356.02,31558,3.75,71956.3,-14.75,-16.17,-16.17,0,*6D
1516554357.3,31559,3.75,71952.0,-14.75,-16.23,-16.23,0,*6C
1516554358.59,31560,3.75,71956.5,-14.75,-16.23,-16.17,0,*61
1516554359.85,31561,3.75,71960.5,-14.75,-16.09,-16.03,0,*6D
1516554361.12,31562,3.75,71968.0,-14.75,-16.09,-16.03,0,*6E
1516554362.4,31563,3.75,71964.3,-14.79,-16.23,-16.23,0,*69
1516554363.69,31564,3.75,71962.3,-14.75,-16.17,-16.09,0,*6D
1516554364.95,31565,3.75,71956.0,-14.75,-16.17,-16.03,0,*66
1516554366.21,31566,3.75,71962.3,-14.79,-16.13,-15.99,0,*6D
1516554367.44,31567,3.75,71962.3,-14.79,-16.03,-16.03,0,*6D
1516554368.67,31568,3.75,71962.0,-14.79,-15.99,-15.99,0,*62
1516554369.9,31569,3.75,71968.5,-14.75,-15.95,-15.99,0,*63
1516554371.17,31570,3.75,71968.0,-14.75,-16.09,-16.03,0,*6D
1516554372.39,31571,3.75,71968.0,-14.79,-15.99,-15.99,0,*6A
1516554373.65,31572,3.75,71966.8,-14.75,-16.03,-15.89,0,*64
1516554374.94,31573,3.75,71964.0,-14.79,-16.13,-16.09,0,*63
1516554376.23,31574,3.75,71964.0,-14.79,-16.13,-16.09,0,*64
1516554377.5,31575,3.75,71960.0,-14.75,-16.03,-16.09,0,*68
1516554378.79,31576,3.75,71966.3,-14.79,-16.09,-16.09,0,*6D
1516554380.02,31577,3.75,71966.3,-14.75,-16.03,-16.03,0,*60
1516554381.25,31578,3.75,71966.5,-14.75,-16.03,-16.03,0,*6F
1516554382.55,31579,3.75,71958.0,-14.79,-16.09,-16.09,0,*62
1516554383.84,31580,3.75,71942.8,-14.79,-16.23,-16.09,0,*6C
1516554385.1,31581,3.75,71942.3,-14.79,-16.09,-15.99,0,*6F
1516554386.36,31582,3.81,71948.8,-14.75,-16.09,-16.03,0,*60
1516554387.6,31583,3.75,71948.0,-14.75,-15.95,-16.03,0,*67
1516554388.85,31584,3.75,71950.0,-14.75,-15.95,-15.89,0,*61
1516554390.11,31585,3.75,71954.3,-14.79,-15.85,-15.99,0,*6C
1516554391.37,31586,3.75,71964.8,-14.75,-15.81,-15.95,0,*6B
1516554392.64,31587,3.75,71958.8,-14.75,-15.89,-15.75,0,*6C
1516554393.92,31588,3.75,71964.5,-14.79,-15.85,-15.85,0,*6C
1516554395.21,31589,3.75,71962.0,-14.75,-15.81,-15.81,0,*61
1516554396.47,31590,3.75,71968.0,-14.79,-15.95,-15.81,0,*60
1516554397.74,31591,3.75,71970.0,-14.79,-16.09,-15.95,0,*62
1516554399.03,31592,3.75,71964.3,-14.75,-16.17,-16.09,0,*64
1516554400.32,31593,3.75,71962.5,-14.79,-16.13,-16.13,0,*66
1516554401.57,31594,3.75,71966.5,-14.79,-15.99,-15.89,0,*60
1516554402.81,31595,3.75,71964.3,-14.75,-15.95,-15.95,0,*6C
1516554404.1,31596,3.75,71964.5,-14.79,-16.09,-16.09,0,*63
1516554405.33,31597,3.75,71970.3,-14.75,-15.95,-16.03,0,*62
1516554406.56,31598,3.75,71964.3,-14.79,-15.99,-15.99,0,*6D
1516554407.82,31599,3.75,71966.3,-14.79,-16.09,-15.99,0,*66
1516554409.08,31600,3.75,71966.3,-14.75,-15.95,-15.89,0,*6E
1516554410.31,31601,3.75,71966.8,-14.79,-15.99,-15.95,0,*62
1516554411.55,31602,3.75,71964.0,-14.75,-15.95,-15.95,0,*61
1516554412.84,31603,3.75,71960.0,-14.79,-16.09,-16.09,0,*6C
1516554414.1,31604,3.75,71952.3,-14.75,-16.09,-15.95,0,*61
1516554415.34,31605,3.75,71950.5,-14.79,-15.95,-15.95,0,*6A
1516554416.6,31606,3.75,71958.8,-14.75,-15.95,-15.89,0,*68
1516554417.83,31607,3.75,71956.8,-14.79,-15.99,-15.99,0,*68
1516554419.09,31608,3.75,71962.3,-14.79,-15.95,-16.09,0,*61
1516554420.35,31609,3.75,71960.8,-14.79,-16.09,-15.99,0,*6C
1516554421.64,31610,3.81,71962.5,-14.75,-15.89,-15.89,0,*62
1516554422.89,31611,3.75,71958.5,-14.79,-15.99,-15.85,0,*62
1516554424.18,31612,3.75,71964.3,-14.79,-15.85,-15.85,0,*6C
1516554425.41,31613,3.75,71964.0,-14.79,-15.95,-15.95,0,*6D
1516554426.67,31614,3.75,71962.5,-14.75,-15.95,-15.89,0,*6B
1516554427.96,31615,3.75,71968.0,-14.75,-15.81,-15.81,0,*67
1516554429.2,31616,3.75,71956.8,-14.75,-15.95,-15.95,0,*64
1516554430.48,31617,3.75,71950.8,-14.79,-15.89,-15.85,0,*65
1516554431.77,31618,3.81,71958.3,-14.75,-15.89,-15.81,0,*62
1516554433.06,31619,3.75,71956.8,-14.79,-15.85,-15.85,0,*67
1516554434.31,31620,3.81,71966.3,-14.75,-15.81,-15.67,0,*69
1516554435.6,31621,3.75,71958.3,-14.75,-15.81,-15.81,0,*60
1516554436.88,31622,3.75,71970.0,-14.75,-15.81,-15.81,0,*63
1516554438.12,31623,3.75,71974.5,-14.79,-15.95,-15.95,0,*6E
1516554439.36,31624,3.75,71970.5,-14.79,-15.95,-15.95,0,*69
1516554440.61,31625,3.75,71970.3,-14.79,-15.99,-16.09,0,*62
1516554441.84,31626,3.75,71964.3,-14.79,-15.99,-15.99,0,*6B
1516554443.13,31627,3.75,71966.0,-14.75,-15.89,-15.81,0,*6E
1516554444.41,31628,3.75,71956.5,-14.75,-15.81,-15.81,0,*69
1516554445.7,31629,3.75,71950.3,-14.75,-15.89,-15.89,0,*68
1516554446.94,31630,3.75,71938.8,-14.75,-15.95,-15.95,0,*60
1516554448.17,31631,3.75,71946.5,-14.79,-15.95,-15.95,0,*6D
1516554449.46,31632,3.75,71942.0,-14.75,-15.89,-15.81,0,*6A
1516554450.7,31633,3.75,71930.5,-14.79,-15.95,-15.95,0,*6F
1516554451.97,31634,3.75,71936.3,-14.79,-16.09,-15.95,0,*6E
1516554453.19,31635,3.75,71950.8,-14.79,-15.99,-15.99,0,*69
1516554454.43,31636,3.75,71950.5,-14.79,-15.95,-15.95,0,*6A
1516554455.69,31637,3.75,71952.8,-14.79,-16.09,-15.99,0,*61
1516554456.94,31638,3.75,71954.3,-14.79,-15.99,-15.85,0,*69
1516554458.18,31639,3.75,71952.5,-14.79,-15.95,-15.95,0,*65
1516554459.4,31640,3.75,71950.3,-14.79,-15.99,-15.99,0,*6B
1516554460.67,31641,3.75,71952.8,-14.79,-15.85,-15.95,0,*6B
1516554461.9,31642,3.75,71960.3,-14.79,-15.95,-15.95,0,*69
1516554463.16,31643,3.75,71970.8,-14.75,-15.95,-15.85,0,*65
1516554464.42,31644,3.75,71962.0,-14.79,-15.99,-16.09,0,*65
1516554465.71,31645,3.75,71958.8,-14.79,-16.09,-16.13,0,*65
1516554467.0,31646,3.75,71954.8,-14.79,-16.13,-16.13,0,*6D
1516554468.26,31647,3.75,71956.0,-14.79,-16.09,-15.95,0,*6A
1516554469.5,31648,3.75,71956.5,-14.75,-16.03,-16.03,0,*6F
1516554470.78,31649,3.75,71958.5,-14.79,-16.23,-16.23,0,*62
1516554472.04,31650,3.75,71950.3,-14.81,-16.17,-16.13,0,*69
1516554473.25,31651,3.75,71954.3,-14.81,-16.03,-16.03,0,*6C
1516554474.46,31652,3.75,71970.3,-14.81,-16.03,-16.03,0,*6F
1516554475.72,31653,3.75,71964.0,-14.79,-15.85,-15.95,0,*68
1516554476.96,31654,3.75,71972.0,-14.79,-15.95,-15.95,0,*6E
1516554478.25,31655,3.75,71968.0,-14.79,-16.09,-16.09,0,*6F
1516554479.48,31656,3.75,71962.5,-14.79,-15.99,-15.99,0,*6C
1516554480.72,31657,3.75,71966.5,-14.81,-16.13,-16.03,0,*6B
1516554481.95,31658,3.81,71960.3,-14.81,-16.13,-15.99,0,*64
1516554483.16,31659,3.75,71958.5,-14.81,-16.03,-16.03,0,*64
1516554484.37,31660,3.75,71964.0,-14.81,-16.03,-15.99,0,*6E
1516554485.64,31661,3.75,71960.8,-14.81,-15.89,-15.85,0,*63
1516554486.89,31662,3.75,71962.0,-14.83,-15.99,-15.89,0,*6F
1516554488.17,31663,3.75,71956.8,-14.79,-15.85,-15.85,0,*6A
1516554489.43,31664,3.75,71954.5,-14.79,-15.99,-15.85,0,*60
1516554490.66,31665,3.75,71956.3,-14.81,-15.99,-15.89,0,*6A
1516554491.89,31666,3.75,71966.5,-14.81,-16.03,-15.89,0,*69
1516554493.12,31667,3.75,71968.5,-14.81,-15.99,-15.89,0,*68
1516554494.39,31668,3.75,71974.0,-14.79,-16.09,-15.95,0,*67
1516554495.6,31669,3.75,71968.8,-14.81,-16.03,-15.99,0,*67
1516554496.83,31670,3.75,71968.8,-14.81,-15.99,-15.89,0,*6E
1516554498.09,31671,3.75,71972.3,-14.79,-15.95,-15.85,0,*68
1516554499.37,31672,3.75,71956.3,-14.79,-15.85,-15.85,0,*6A
1516554500.6,31673,3.75,71964.8,-14.79,-15.99,-15.99,0,*6B
1516554501.87,31674,3.75,71976.8,-14.79,-16.09,-15.95,0,*6A
1516554503.16,31675,3.75,71976.0,-14.79,-16.13,-16.09,0,*66
1516554504.44,31676,3.75,71980.3,-14.79,-16.23,-16.13,0,*6D